This is the latest recevied weather packets stored in our database for station/object KE8KMM. If no packets are shown the sender has not sent any weather packets the latest 10 day(s).
| Time | Temp. | Humidity | Pressure | Rain* | Wind** | Luminosity | Snow |
|---|---|---|---|---|---|---|---|
| 1777975004 | 15.56° C | 77% | 1005.9 hPa | 0 mm | - | 0 W/m² | - |
| 1777974702 | 15° C | 80% | 1005.9 hPa | 0 mm | - | 0 W/m² | - |
| 1777974397 | 15.56° C | 79% | 1005.9 hPa | 0 mm | - | 0 W/m² | - |
| 1777974094 | 16.11° C | 78% | 1005.7 hPa | 0 mm | - | 0 W/m² | - |
| 1777973790 | 16.11° C | 75% | 1005.8 hPa | 0 mm | - | 0 W/m² | - |
| 1777973488 | 16.67° C | 75% | 1005.6 hPa | 0 mm | - | 0 W/m² | - |
| 1777973185 | 16.67° C | 74% | 1005.5 hPa | 0 mm | - | 0 W/m² | - |
| 1777972884 | 16.67° C | 74% | 1005.5 hPa | 0 mm | - | 0 W/m² | - |
| 1777972580 | 17.22° C | 73% | 1005.5 hPa | 0 mm | - | 0 W/m² | - |
| 1777972278 | 17.22° C | 73% | 1005.4 hPa | 0 mm | - | 0 W/m² | - |
| 1777971975 | 17.22° C | 73% | 1005.4 hPa | 0 mm | - | 0 W/m² | - |
| 1777971674 | 17.78° C | 73% | 1005.3 hPa | 0 mm | - | 0 W/m² | - |
| 1777971370 | 17.78° C | 73% | 1005.4 hPa | 0 mm | - | 0 W/m² | - |
| 1777971069 | 17.78° C | 73% | 1005.1 hPa | 0 mm | - | 0 W/m² | - |
| 1777970766 | 17.78° C | 72% | 1005.1 hPa | 0 mm | - | 0 W/m² | - |
| 1777970464 | 17.78° C | 72% | 1005.1 hPa | 0 mm | - | 0 W/m² | - |
| 1777970161 | 17.78° C | 72% | 1005 hPa | 0 mm | - | 0 W/m² | - |
| 1777969858 | 17.78° C | 72% | 1005 hPa | 0 mm | - | 0 W/m² | - |
| 1777969554 | 17.78° C | 72% | 1004.8 hPa | 0 mm | - | 0 W/m² | - |
| 1777969251 | 17.78° C | 72% | 1005.1 hPa | 0 mm | - | 0 W/m² | - |
| 1777968947 | 17.78° C | 71% | 1004.9 hPa | 0 mm | - | 0 W/m² | - |
| 1777968644 | 17.78° C | 72% | 1005 hPa | 0 mm | - | 0 W/m² | - |
| 1777968340 | 17.78° C | 71% | 1004.8 hPa | 0 mm | - | 0 W/m² | - |
| 1777968038 | 17.78° C | 72% | 1005 hPa | 0 mm | - | 0 W/m² | - |
| 1777967733 | 17.78° C | 72% | 1004.9 hPa | 0 mm | - | 0 W/m² | - |
* Rain latest hour (hover to see other rain measurements)
** Current wind speed in m/s (hover to see current wind gust speed)